SKYSAT-C10 (42988 NORAD) Tracking and Keplerian Element Data

This shows tracking and keplerian element data for the satellite.

Feedback or suggestion? Click here.




ElementValue
Catalog42988
NameSKYSAT-C10
Epoch Orbit5822
Epoch Day323.14219074
Epoch Year2018
RAAN74.59
Inclination97.4138
Eccentricity0.0003624
Argument of Perigee265.5089
Mean Anonmoly215.8075
Mean Motion15.21545049
Decay Rate7.13E-06
L11 42988U 17068B 18323.14219074 .00000713 00000-0 34702-4 0 9999
L22 42988 97.4138 74.5900 0003624 265.5089 215.8075 15.21545049 58221

Live tracking and technical data element details for SKYSAT-C10 (NORAD 42988). SKYSAT-C10 can be tracked NOW for your location showing map with azimuth and elevation plus other details from your city location.

Track the satellite on the map from your city or location and see movement details for azimuth, elevation, latitude, longitude, range, height, and movement on the map or in text.







IsCatalogInMostPopularTable: catalog: 42988, numindb: 151
Update: records affected: 1



GetName: 42988 SKYSAT-C10

Hit Count: updated at: Mon, 19 Nov 2018 11:29:23 GMT